Flag Weather past 2 weeks in Quesnel, British Columbia, Canada

Now
30 °F

Clear.


Feels Like: 30 °F
Forecast: 32 / 38 °F
Wind: 2 mph from North

Location: Quesnel Airport

Current Time: Nov 22, 2014 at 6:30:36 PM

Latest Report: Nov 22, 2014 at 6:00 PM


Visibility: 9 mi

Pressure: 29.79 "Hg

Humidity: 80%

Dew point: 25 °F

Location of QuesnelLocation

Historic Weather in Quesnel — Graph

°F

Quesnel temperature yesterday

Maximum temperature yesterday: 43 °F (at 4:00 PM)
Minimum temperature yesterday: 34 °F (at 7:00 AM)
Average temperature yesterday: 39 °F

Past Weeks' High & Low Weather Summary

 TemperatureHumidityPressure
High45 °F (Nov 7, 8:00 PM)100% (Nov 7, 5:00 PM)30.79 "Hg (Nov 7, 5:00 PM)
Low5 °F (Nov 13, 4:00 AM)42% (Nov 22, 3:00 PM)29.19 "Hg (Nov 21, 9:00 PM)
Average24 °F86%30.30 "Hg
* Reported Nov 7 5:00 PM — Nov 22 5:00 PM, Quesnel, Weather by CustomWeather, © 2014

Note: Actual official high and low records may vary slightly from our data, if they occured in-between our weather recording intervals... More about our weather records

Advertising

Quesnel weather history for previous 24 hours

 ConditionsComfort  
Time TempWeatherWind HumidityBarometerVisibility
5:00 PM
Nov 22
32 °FClear.3 mph80%29.77 "Hg9 mi
4:00 PM39 °FScattered clouds.2 mph61%29.73 "Hg9 mi
3:00 PM45 °FOvercast.7 mph42%29.69 "Hg9 mi
2:00 PM45 °FPartly sunny.3 mph46%29.66 "Hg9 mi
1:00 PM45 °FOvercast.14 mph46%29.62 "Hg9 mi
12:00 PM43 °FPartly sunny.5 mph61%29.60 "Hg9 mi
11:00 AM39 °FSunny.5 mph70%29.57 "Hg9 mi
10:00 AM36 °FMostly cloudy.8 mph87%29.54 "Hg9 mi
9:00 AM36 °FOvercast.5 mph81%29.51 "Hg9 mi
8:00 AM37 °FOvercast.6 mph75%29.47 "Hg9 mi
7:00 AM36 °FOvercast.3 mph93%29.44 "Hg9 mi
6:00 AM34 °FOvercast.3 mph100%29.39 "Hg9 mi
5:00 AM34 °FOvercast.No wind100%29.35 "Hg7 mi
4:00 AM34 °FMostly cloudy.2 mph100%29.33 "Hg9 mi
3:00 AM36 °FOvercast.No wind100%29.29 "Hg9 mi
2:00 AM36 °FOvercast.No wind100%29.26 "Hg9 mi
1:00 AM39 °FMostly cloudy.5 mph93%29.23 "Hg9 mi
12:55 AM39 °FMostly cloudy.2 mph93%29.23 "Hg9 mi
12:00 AM39 °FLight rain. Mostly cloudy.7 mph93%29.21 "Hg9 mi
11:00 PM
Nov 21
39 °FLight rain. Mostly cloudy.8 mph93%29.19 "Hg9 mi
10:00 PM39 °FLight rain. Overcast.7 mph93%29.19 "Hg9 mi
9:00 PM41 °FLight rain. Overcast.6 mph81%29.19 "Hg9 mi
8:00 PM41 °FLight rain. Overcast.7 mph81%29.19 "Hg9 mi
7:00 PM43 °FOvercast.9 mph76%29.20 "Hg9 mi
6:00 PM43 °FOvercast.13 mph76%29.22 "Hg9 mi
Weather by CustomWeather, © 2014

See weather overviewHow to use our weather pages